| time (UTC) | temp F | wind direction | speed MPH | gust MPH | rain 1hr in | rain 24hr in | rain mn in | humidity % | barometer mb |
| 20260507092017 | 51 | 0.0 | 1.0 | 0.00 | 0.00 | 0.00 | 86 | 1017.0 | |
| 20260507091017 | 52 | 0.0 | 1.0 | 0.00 | 0.00 | 0.00 | 85 | 1016.9 | |
| 20260507090037 | 52 | 0.0 | 2.0 | 0.00 | 0.00 | 0.00 | 85 | 1016.7 | |
| 20260507085157 | 52 | 0 | 3.0 | 4.0 | 0.00 | 0.00 | 0.00 | 85 | 1016.5 |
| 20260507084017 | 52 | 0 | 3.0 | 4.0 | 0.00 | 0.00 | 0.00 | 85 | 1016.5 |
| 20260507083017 | 52 | 0 | 4.0 | 5.0 | 0.00 | 0.00 | 0.00 | 85 | 1016.6 |
| 20260507082037 | 52 | 0 | 4.0 | 6.0 | 0.00 | 0.00 | 0.00 | 85 | 1016.6 |
| 20260507081017 | 52 | 0 | 3.0 | 5.0 | 0.00 | 0.00 | 0.00 | 85 | 1016.6 |
| 20260507080016 | 52 | 23 | 2.0 | 5.0 | 0.00 | 0.00 | 0.00 | 85 | 1016.8 |
| 20260507075017 | 52 | 0 | 2.0 | 4.0 | 0.00 | 0.00 | 0.00 | 85 | 1016.9 |
| 20260507074016 | 52 | 0 | 2.0 | 3.0 | 0.00 | 0.00 | 0.00 | 85 | 1017.0 |
| 20260507073016 | 52 | 0 | 1.0 | 2.0 | 0.00 | 0.00 | 0.00 | 85 | 1017.1 |
| 20260507072036 | 53 | 338 | 1.0 | 4.0 | 0.00 | 0.00 | 0.00 | 85 | 1017.1 |
| 20260507071017 | 53 | 338 | 1.0 | 5.0 | 0.00 | 0.00 | 0.00 | 84 | 1016.9 |
| 20260507070017 | 53 | 0 | 1.0 | 2.0 | 0.00 | 0.00 | 0.00 | 85 | 1016.8 |
| 20260507065016 | 53 | 338 | 1.0 | 3.0 | 0.00 | 0.00 | 0.00 | 85 | 1016.8 |
| 20260507064016 | 53 | 0 | 2.0 | 4.0 | 0.00 | 0.00 | 0.00 | 85 | 1016.6 |
| 20260507063016 | 53 | 23 | 3.0 | 5.0 | 0.00 | 0.00 | 0.00 | 85 | 1016.3 |
| 20260507062016 | 54 | 0 | 3.0 | 5.0 | 0.00 | 0.00 | 0.00 | 84 | 1016.2 |
| 20260507061016 | 54 | 0 | 2.0 | 4.0 | 0.00 | 0.00 | 0.00 | 84 | 1016.3 |
| 20260507060037 | 54 | 0 | 4.0 | 5.0 | 0.00 | 0.00 | 0.00 | 83 | 1016.1 |
| 20260507055016 | 54 | 23 | 3.0 | 5.0 | 0.00 | 0.00 | 0.00 | 83 | 1016.3 |
| 20260507054016 | 55 | 23 | 2.0 | 4.0 | 0.00 | 0.00 | 0.00 | 82 | 1016.2 |
| 20260507053016 | 55 | 23 | 3.0 | 5.0 | 0.00 | 0.00 | 0.00 | 82 | 1016.3 |
| 20260507052057 | 55 | 45 | 3.0 | 4.0 | 0.00 | 0.00 | 0.00 | 81 | 1016.3 |
| 20260507051517 | 55 | 23 | 3.0 | 5.0 | 0.00 | 0.00 | 0.00 | 81 | 1016.4 |
| 20260507050516 | 55 | 45 | 2.0 | 2.0 | 0.00 | 0.00 | 0.00 | 81 | 1016.5 |
| 20260507045516 | 55 | 68 | 3.0 | 5.0 | 0.00 | 0.00 | 0.00 | 81 | 1016.7 |
| 20260507044516 | 56 | 45 | 3.0 | 4.0 | 0.00 | 0.00 | 0.00 | 81 | 1016.7 |
| 20260507043516 | 56 | 23 | 2.0 | 4.0 | 0.00 | 0.00 | 0.00 | 80 | 1016.7 |
| 20260507042516 | 56 | 0.0 | 0.0 | 0.00 | 0.00 | 0.00 | 80 | 1016.7 | |
| 20260507041516 | 56 | 45 | 2.0 | 4.0 | 0.00 | 0.00 | 0.00 | 80 | 1016.6 |
| 20260507040516 | 56 | 45 | 2.0 | 4.0 | 0.00 | 0.00 | 0.00 | 80 | 1016.5 |
| 20260507035516 | 56 | 45 | 1.0 | 4.0 | 0.00 | 0.00 | 0.00 | 79 | 1016.6 |
| 20260507034516 | 57 | 68 | 2.0 | 4.0 | 0.00 | 0.00 | 0.00 | 78 | 1016.6 |
| 20260507033516 | 57 | 45 | 3.0 | 4.0 | 0.00 | 0.00 | 0.00 | 78 | 1016.8 |
| 20260507032516 | 57 | 45 | 1.0 | 2.0 | 0.00 | 0.00 | 0.00 | 77 | 1016.5 |
| 20260507031515 | 58 | 23 | 2.0 | 5.0 | 0.00 | 0.00 | 0.00 | 76 | 1016.5 |
| 20260507030516 | 58 | 0 | 1.0 | 2.0 | 0.00 | 0.00 | 0.00 | 76 | 1016.4 |
| 20260507025516 | 58 | 0 | 2.0 | 3.0 | 0.00 | 0.00 | 0.00 | 76 | 1016.4 |
| 20260507024516 | 58 | 23 | 5.0 | 6.0 | 0.00 | 0.00 | 0.00 | 75 | 1016.1 |
| 20260507023515 | 58 | 0.0 | 1.0 | 0.00 | 0.00 | 0.00 | 75 | 1016.0 | |
| 20260507022516 | 58 | 0.0 | 2.0 | 0.00 | 0.00 | 0.00 | 75 | 1015.9 | |
| 20260507021515 | 58 | 23 | 4.0 | 6.0 | 0.00 | 0.00 | 0.00 | 75 | 1015.6 |
| 20260507020515 | 58 | 23 | 5.0 | 7.0 | 0.00 | 0.00 | 0.00 | 74 | 1015.3 |
| 20260507015515 | 58 | 0 | 3.0 | 6.0 | 0.00 | 0.00 | 0.00 | 74 | 1015.1 |
| 20260507014515 | 58 | 0 | 5.0 | 7.0 | 0.00 | 0.00 | 0.00 | 74 | 1015.2 |
| 20260507013515 | 58 | 23 | 4.0 | 5.0 | 0.00 | 0.00 | 0.00 | 73 | 1014.9 |
| 20260507012516 | 58 | 23 | 6.0 | 8.0 | 0.00 | 0.00 | 0.00 | 73 | 1014.8 |
| 20260507011515 | 58 | 23 | 9.0 | 11.0 | 0.00 | 0.00 | 0.00 | 73 | 1014.6 |
| 20260507010515 | 59 | 0 | 8.0 | 12.0 | 0.00 | 0.00 | 0.00 | 73 | 1014.4 |
| 20260507005515 | 59 | 23 | 9.0 | 11.0 | 0.00 | 0.00 | 0.00 | 73 | 1014.4 |
| 20260507004515 | 59 | 23 | 7.0 | 10.0 | 0.00 | 0.00 | 0.00 | 72 | 1014.3 |
| 20260507003516 | 59 | 23 | 5.0 | 7.0 | 0.00 | 0.00 | 0.00 | 72 | 1013.9 |
| 20260507002515 | 60 | 23 | 7.0 | 11.0 | 0.00 | 0.00 | 0.00 | 72 | 1013.7 |
| 20260507001515 | 60 | 0 | 7.0 | 9.0 | 0.00 | 0.00 | 0.00 | 72 | 1013.7 |
| 20260507000515 | 60 | 23 | 8.0 | 13.0 | 0.00 | 0.00 | 0.00 | 71 | 1013.6 |
| 20260506235535 | 60 | 0 | 6.0 | 8.0 | 0.00 | 0.00 | 0.00 | 72 | 1013.6 |
| 20260506234515 | 61 | 0 | 7.0 | 13.0 | 0.00 | 0.00 | 0.00 | 71 | 1013.5 |
| 20260506233515 | 61 | 23 | 4.0 | 5.0 | 0.00 | 0.00 | 0.00 | 73 | 1013.4 |
| 20260506232517 | 61 | 23 | 6.0 | 8.0 | 0.00 | 0.00 | 0.00 | 71 | 1013.3 |
| 20260506231517 | 62 | 23 | 8.0 | 11.0 | 0.00 | 0.00 | 0.00 | 71 | 1013.3 |
| 20260506230517 | 62 | 23 | 6.0 | 8.0 | 0.00 | 0.00 | 0.00 | 71 | 1013.2 |
| 20260506225515 | 62 | 23 | 9.0 | 14.0 | 0.00 | 0.00 | 0.00 | 70 | 1013.0 |
| 20260506224517 | 62 | 23 | 6.0 | 8.0 | 0.00 | 0.00 | 0.00 | 71 | 1013.0 |
| 20260506223517 | 62 | 23 | 6.0 | 10.0 | 0.00 | 0.00 | 0.00 | 71 | 1013.0 |
| 20260506222517 | 62 | 0 | 7.0 | 10.0 | 0.00 | 0.00 | 0.00 | 71 | 1012.8 |
| 20260506221517 | 62 | 45 | 6.0 | 10.0 | 0.00 | 0.00 | 0.00 | 72 | 1012.7 |
| 20260506220517 | 62 | 0 | 7.0 | 11.0 | 0.00 | 0.00 | 0.00 | 71 | 1012.7 |
| 20260506215517 | 62 | 0 | 7.0 | 11.0 | 0.00 | 0.00 | 0.00 | 71 | 1012.8 |
| 20260506214517 | 62 | 0 | 4.0 | 9.0 | 0.00 | 0.00 | 0.00 | 71 | 1012.8 |
| 20260506213517 | 62 | 0 | 7.0 | 9.0 | 0.00 | 0.00 | 0.00 | 72 | 1012.9 |
| 20260506212517 | 62 | 23 | 7.0 | 8.0 | 0.00 | 0.00 | 0.00 | 71 | 1012.8 |
| 20260506211517 | 62 | 45 | 5.0 | 8.0 | 0.00 | 0.00 | 0.00 | 72 | 1012.9 |
| 20260506210517 | 62 | 45 | 5.0 | 7.0 | 0.00 | 0.00 | 0.00 | 72 | 1013.2 |
| 20260506205557 | 62 | 68 | 6.0 | 9.0 | 0.00 | 0.00 | 0.00 | 72 | 1013.3 |
| 20260506204517 | 61 | 23 | 4.0 | 6.0 | 0.00 | 0.00 | 0.00 | 72 | 1013.3 |
| 20260506203517 | 61 | 68 | 6.0 | 8.0 | 0.00 | 0.00 | 0.00 | 73 | 1013.4 |
| 20260506202517 | 61 | 45 | 5.0 | 8.0 | 0.00 | 0.00 | 0.00 | 71 | 1013.0 |
| 20260506201517 | 62 | 158 | 1.0 | 2.0 | 0.00 | 0.00 | 0.00 | 71 | 1013.1 |
| 20260506200517 | 61 | 113 | 4.0 | 6.0 | 0.00 | 0.00 | 0.00 | 71 | 1013.2 |
| 20260506195537 | 62 | 0 | 7.0 | 10.0 | 0.00 | 0.00 | 0.00 | 70 | 1013.1 |
| 20260506194516 | 61 | 0 | 7.0 | 13.0 | 0.00 | 0.00 | 0.00 | 69 | 1012.8 |
| 20260506193517 | 62 | 0 | 7.0 | 12.0 | 0.00 | 0.00 | 0.00 | 70 | 1012.5 |
| 20260506192516 | 62 | 0 | 9.0 | 12.0 | 0.00 | 0.00 | 0.00 | 70 | 1012.6 |
| 20260506191517 | 61 | 23 | 8.0 | 12.0 | 0.00 | 0.00 | 0.00 | 71 | 1012.3 |
| 20260506190517 | 60 | 0 | 10.0 | 15.0 | 0.00 | 0.00 | 0.00 | 72 | 1012.3 |
| 20260506185517 | 59 | 0 | 8.0 | 14.0 | 0.00 | 0.00 | 0.00 | 74 | 1012.2 |
| 20260506184537 | 58 | 23 | 9.0 | 11.0 | 0.00 | 0.00 | 0.00 | 75 | 1012.5 |
| 20260506183517 | 57 | 0 | 7.0 | 9.0 | 0.00 | 0.00 | 0.00 | 75 | 1012.4 |
| 20260506182557 | 57 | 0 | 6.0 | 9.0 | 0.00 | 0.00 | 0.00 | 75 | 1012.4 |
| 20260506181517 | 56 | 23 | 9.0 | 16.0 | 0.00 | 0.00 | 0.00 | 76 | 1012.7 |
| 20260506180516 | 55 | 0 | 6.0 | 8.0 | 0.00 | 0.00 | 0.00 | 77 | 1012.8 |
| 20260506175516 | 55 | 23 | 8.0 | 14.0 | 0.00 | 0.00 | 0.00 | 78 | 1012.6 |
| 20260506174517 | 55 | 0 | 5.0 | 9.0 | 0.00 | 0.00 | 0.00 | 78 | 1013.0 |
| 20260506173516 | 55 | 23 | 9.0 | 13.0 | 0.00 | 0.00 | 0.00 | 78 | 1013.2 |
| 20260506172537 | 55 | 23 | 8.0 | 13.0 | 0.00 | 0.00 | 0.00 | 79 | 1013.5 |
| 20260506171516 | 54 | 68 | 7.0 | 9.0 | 0.00 | 0.00 | 0.00 | 79 | 1014.6 |
| 20260506170516 | 54 | 23 | 7.0 | 10.0 | 0.00 | 0.00 | 0.00 | 79 | 1014.2 |
| 20260506165516 | 54 | 0 | 8.0 | 11.0 | 0.00 | 0.00 | 0.00 | 79 | 1013.8 |
| 20260506164556 | 54 | 23 | 6.0 | 9.0 | 0.00 | 0.00 | 0.00 | 80 | 1014.3 |
| 20260506163516 | 54 | 338 | 3.0 | 6.0 | 0.00 | 0.00 | 0.00 | 80 | 1013.6 |
| 20260506162516 | 53 | 23 | 9.0 | 15.0 | 0.00 | 0.00 | 0.00 | 80 | 1013.8 |
| 20260506161516 | 53 | 0 | 6.0 | 9.0 | 0.00 | 0.00 | 0.00 | 80 | 1014.1 |
| 20260506160516 | 54 | 338 | 6.0 | 10.0 | 0.00 | 0.00 | 0.00 | 80 | 1014.3 |
| 20260506155516 | 54 | 68 | 7.0 | 9.0 | 0.00 | 0.00 | 0.00 | 79 | 1014.1 |
| 20260506154516 | 54 | 68 | 7.0 | 10.0 | 0.00 | 0.00 | 0.00 | 78 | 1013.9 |
| 20260506153516 | 54 | 338 | 7.0 | 10.0 | 0.00 | 0.00 | 0.00 | 79 | 1013.3 |
| 20260506152516 | 54 | 23 | 11.0 | 14.0 | 0.00 | 0.00 | 0.00 | 79 | 1013.5 |
| 20260506151516 | 53 | 23 | 11.0 | 15.0 | 0.00 | 0.00 | 0.00 | 79 | 1013.6 |
| 20260506150516 | 53 | 0 | 7.0 | 10.0 | 0.00 | 0.00 | 0.00 | 80 | 1013.7 |
| 20260506145516 | 53 | 23 | 8.0 | 11.0 | 0.00 | 0.00 | 0.00 | 80 | 1013.5 |
| 20260506144517 | 53 | 0 | 7.0 | 13.0 | 0.00 | 0.00 | 0.00 | 80 | 1013.9 |
| 20260506143516 | 53 | 45 | 5.0 | 8.0 | 0.00 | 0.00 | 0.00 | 81 | 1013.6 |
| 20260506142516 | 53 | 0 | 9.0 | 13.0 | 0.00 | 0.00 | 0.00 | 81 | 1013.0 |
| 20260506141536 | 53 | 23 | 10.0 | 16.0 | 0.00 | 0.00 | 0.00 | 81 | 1012.5 |
| 20260506140516 | 52 | 0 | 7.0 | 12.0 | 0.00 | 0.00 | 0.00 | 82 | 1012.3 |
| 20260506135516 | 52 | 23 | 9.0 | 13.0 | 0.00 | 0.00 | 0.00 | 82 | 1012.8 |
| 20260506134516 | 52 | 23 | 11.0 | 16.0 | 0.00 | 0.00 | 0.00 | 82 | 1012.6 |
| 20260506133516 | 52 | 0 | 8.0 | 12.0 | 0.00 | 0.00 | 0.00 | 83 | 1012.4 |
| 20260506132516 | 52 | 0 | 5.0 | 7.0 | 0.00 | 0.00 | 0.00 | 84 | 1011.9 |
| 20260506131516 | 52 | 0 | 4.0 | 7.0 | 0.00 | 0.00 | 0.00 | 85 | 1012.2 |
| 20260506130516 | 51 | 0 | 8.0 | 10.0 | 0.00 | 0.00 | 0.00 | 85 | 1012.0 |
| 20260506125516 | 51 | 23 | 7.0 | 12.0 | 0.00 | 0.00 | 0.00 | 86 | 1012.1 |
| 20260506124517 | 51 | 23 | 6.0 | 9.0 | 0.00 | 0.00 | 0.00 | 86 | 1012.1 |
| 20260506123516 | 51 | 23 | 6.0 | 9.0 | 0.00 | 0.00 | 0.00 | 86 | 1012.1 |
| 20260506122516 | 51 | 338 | 8.0 | 10.0 | 0.00 | 0.00 | 0.00 | 87 | 1012.0 |
| 20260506121515 | 50 | 0 | 10.0 | 13.0 | 0.00 | 0.00 | 0.00 | 88 | 1011.7 |
| 20260506120516 | 50 | 0 | 8.0 | 12.0 | 0.00 | 0.00 | 0.00 | 88 | 1011.5 |
| 20260506115516 | 50 | 23 | 10.0 | 15.0 | 0.00 | 0.00 | 0.00 | 88 | 1011.4 |
| 20260506114517 | 50 | 0 | 4.0 | 7.0 | 0.00 | 0.00 | 0.00 | 88 | 1011.2 |
| 20260506113516 | 50 | 338 | 9.0 | 14.0 | 0.00 | 0.00 | 0.00 | 87 | 1011.2 |
| 20260506112515 | 50 | 338 | 8.0 | 11.0 | 0.00 | 0.00 | 0.00 | 87 | 1010.9 |
| 20260506111516 | 51 | 338 | 10.0 | 14.0 | 0.00 | 0.00 | 0.00 | 86 | 1011.0 |
| 20260506110515 | 51 | 0 | 4.0 | 8.0 | 0.00 | 0.00 | 0.00 | 86 | 1011.0 |
| 20260506105515 | 51 | 338 | 6.0 | 10.0 | 0.00 | 0.00 | 0.00 | 85 | 1011.1 |
| 20260506104515 | 51 | 338 | 7.0 | 12.0 | 0.00 | 0.00 | 0.00 | 84 | 1010.8 |
| 20260506103515 | 52 | 0 | 9.0 | 16.0 | 0.00 | 0.00 | 0.00 | 84 | 1010.8 |
| 20260506102516 | 52 | 23 | 7.0 | 9.0 | 0.00 | 0.00 | 0.00 | 83 | 1010.7 |
| 20260506101516 | 52 | 338 | 8.0 | 11.0 | 0.00 | 0.00 | 0.00 | 82 | 1010.7 |
| 20260506100515 | 52 | 0 | 8.0 | 11.0 | 0.00 | 0.00 | 0.00 | 82 | 1010.3 |
| 20260506095515 | 52 | 0 | 9.0 | 13.0 | 0.00 | 0.00 | 0.00 | 81 | 1010.1 |
| 20260506094555 | 52 | 23 | 8.0 | 14.0 | 0.00 | 0.00 | 0.00 | 81 | 1009.9 |
| 20260506093515 | 52 | 0 | 10.0 | 15.0 | 0.00 | 0.00 | 0.00 | 80 | 1009.7 |